Location: Shepherdstown, WV
(39.4326°N, 77.8042°W)
Time: 15:09:43
(UTC-04:00)

Tiros 1 despin weight - Pass Details

Date: 06 August 2021
Orbit: 593 x 641 km, 48.2° (Epoch: 18 September)

Event Time Altitude Azimuth Distance (km) Brightness Sun altitude
Rises 16:26:20 0° 299° (WNW) 2,939 ? 43.0°
Reaches altitude 10° 16:28:50 10° 309° (NW) 2,032 ? 42.5°
Maximum altitude 16:33:08 35° 15° (NNE) 1,036 ? 41.7°
Drops below altitude 10° 16:37:26 10° 82° (E) 2,025 ? 40.9°
Sets 16:39:55 0° 91° (E) 2,929 ? 40.5°
